Location: Unspecified
(32.2314°N, 110.9180°W)
Time: 07:47:41
(UTC-06:00)

Envisat - Visible Passes

Search period start: 29 September 2022 00:00
Search period end: 09 October 2022 00:00
Orbit: 764 x 765 km, 98.2° (Epoch: 28 September)

Date Brightness Start Highest point End Pass type
(mag) Time Alt. Az. Time Alt. Az. Time Alt. Az.
29 Sep 3.1 05:33:47 10° NNE 05:38:52 75° ESE 05:43:55 10° S visible
30 Sep 4.7 04:57:24 10° NE 05:01:50 30° E 05:06:15 10° SSE visible
30 Sep 4.0 06:36:36 10° NNW 06:40:39 25° WNW 06:44:41 10° WSW visible
01 Oct 5.9 04:22:45 10° ENE 04:24:38 12° E 04:26:30 10° ESE visible
01 Oct 3.0 05:58:56 10° N 06:03:55 59° WNW 06:08:53 10° SSW visible
02 Oct 3.6 05:22:01 10° NNE 05:27:01 56° E 05:31:58 10° S visible
03 Oct 5.2 04:45:57 10° NE 04:49:55 23° E 04:53:52 10° SSE visible
03 Oct 3.7 06:24:25 10° N 06:28:53 32° WNW 06:33:20 10° SW visible
04 Oct 2.9 05:47:01 10° N 05:52:06 78° WNW 05:57:09 10° SSW visible
05 Oct 4.1 05:10:20 10° NNE 05:15:08 42° E 05:19:55 10° S visible
05 Oct 4.4 06:50:24 10° NNW 06:53:45 18° WNW 06:57:06 10° WSW visible
06 Oct 5.5 04:34:41 10° NE 04:37:59 17° E 04:41:17 10° SE visible
06 Oct 3.3 06:12:20 10° N 06:17:06 42° WNW 06:21:50 10° SW visible
07 Oct 3.0 05:35:10 10° NNE 05:40:16 80° ESE 05:45:20 10° S visible
08 Oct 4.6 04:58:43 10° NE 05:03:14 32° E 05:07:43 10° SSE visible
08 Oct 4.1 06:38:03 10° NNW 06:42:00 23° WNW 06:45:57 10° WSW visible
